AFR663 LFPG-LFMN

Flight info

Callsign AFR663
Flight time 1h 12m
Altitude 35000
Route LATRA6K LATRA DCT LAMUT DCT UTUVA DCT LERGA DCT LIQID DCT LATAM DCT TUNUR DCT NISAR NISAR8R
Aircraft A321/M-SDE3FGHIRWY/LB1

Departure

Time 2026-05-08 05:46
Airport Charles de Gaulle International Airport (LFPG)

Arrival

Time 2026-05-08 06:59
Airport Nice-Côte d'Azur Airport (LFMN)
Time Latitude Longitude Altitude Speed Heading
2026-05-08 05:27 49.00683 2.57317 354 ft 0 kts 135°
2026-05-08 05:32 49.00685 2.57315 354 ft 1 kts 134°
2026-05-08 05:32 49.00697 2.57295 363 ft 3 kts 123°
2026-05-08 05:32 49.00706 2.57269 363 ft 3 kts 99°
2026-05-08 05:32 49.00706 2.57244 358 ft 3 kts 50°
2026-05-08 05:33 49.00698 2.57233 356 ft 1 kts 19°
2026-05-08 05:33 49.00695 2.57232 355 ft 0 kts 19°
2026-05-08 05:36 49.00716 2.57240 359 ft 12 kts
2026-05-08 05:36 49.00791 2.57263 358 ft 0 kts 17°
2026-05-08 05:37 49.00802 2.57253 361 ft 5 kts 329°
2026-05-08 05:38 49.00838 2.57160 360 ft 16 kts 286°
2026-05-08 05:38 49.00841 2.56949 356 ft 25 kts 266°
2026-05-08 05:38 49.00827 2.56630 354 ft 34 kts 265°
2026-05-08 05:38 49.00799 2.56276 354 ft 33 kts 262°
2026-05-08 05:39 49.00770 2.55941 354 ft 32 kts 263°
2026-05-08 05:39 49.00743 2.55610 354 ft 31 kts 263°
2026-05-08 05:39 49.00703 2.55300 357 ft 23 kts 265°
2026-05-08 05:39 49.00785 2.55185 360 ft 16 kts 340°
2026-05-08 05:40 49.00891 2.55136 358 ft 18 kts 345°
2026-05-08 05:40 49.01043 2.55071 360 ft 27 kts 344°
2026-05-08 05:40 49.01253 2.54980 354 ft 35 kts 344°
2026-05-08 05:40 49.01514 2.54899 357 ft 39 kts 357°
2026-05-08 05:41 49.01768 2.54868 359 ft 35 kts 350°
2026-05-08 05:41 49.01836 2.54655 354 ft 23 kts 263°
2026-05-08 05:41 49.01822 2.54419 354 ft 22 kts 265°
2026-05-08 05:41 49.01811 2.54191 354 ft 21 kts 267°
2026-05-08 05:42 49.01805 2.53972 354 ft 20 kts 267°
2026-05-08 05:42 49.01788 2.53730 363 ft 27 kts 263°
2026-05-08 05:42 49.01764 2.53402 354 ft 35 kts 266°
2026-05-08 05:42 49.01749 2.52994 354 ft 42 kts 265°
2026-05-08 05:43 49.01724 2.52526 354 ft 46 kts 266°
2026-05-08 05:43 49.01740 2.52146 360 ft 21 kts 326°
2026-05-08 05:43 49.01865 2.52130 358 ft 18 kts 352°
2026-05-08 05:43 49.01984 2.52109 356 ft 17 kts 356°
2026-05-08 05:44 49.02092 2.52145 363 ft 15 kts 49°
2026-05-08 05:44 49.02114 2.52257 353 ft 0 kts 84°
2026-05-08 05:45 49.02127 2.52481 356 ft 56 kts 85°
2026-05-08 05:46 49.02178 2.53423 361 ft 119 kts 85°
2026-05-08 05:46 49.02260 2.54935 355 ft 165 kts 85°
2026-05-08 05:46 49.02327 2.56753 806 ft 171 kts 88°
2026-05-08 05:46 49.02361 2.58568 1440 ft 172 kts 89°
2026-05-08 05:47 49.02409 2.60395 2044 ft 174 kts 88°
2026-05-08 05:47 49.02476 2.62304 2423 ft 188 kts 87°
2026-05-08 05:47 49.02601 2.64422 2494 ft 213 kts 84°
2026-05-08 05:47 49.02764 2.66714 2718 ft 231 kts 84°
2026-05-08 05:48 49.02946 2.69312 3074 ft 252 kts 84°
2026-05-08 05:48 49.03120 2.72002 3857 ft 258 kts 85°
2026-05-08 05:48 49.03281 2.74708 4633 ft 262 kts 85°
2026-05-08 05:48 49.03440 2.77545 5380 ft 268 kts 85°
2026-05-08 05:49 49.03593 2.80364 6111 ft 273 kts 85°
2026-05-08 05:49 49.03746 2.83272 6814 ft 277 kts 85°
2026-05-08 05:49 49.03896 2.86224 7510 ft 282 kts 85°
2026-05-08 05:49 49.04047 2.89220 8206 ft 286 kts 85°
2026-05-08 05:50 49.04197 2.92267 8894 ft 290 kts 86°
2026-05-08 05:50 49.04089 2.95347 9551 ft 294 kts 107°
2026-05-08 05:50 49.03166 2.98112 10166 ft 296 kts 133°
2026-05-08 05:50 49.01557 3.00079 10543 ft 305 kts 157°
2026-05-08 05:51 48.99457 3.00809 10749 ft 317 kts 180°
2026-05-08 05:51 48.97224 3.00859 11267 ft 323 kts 181°
2026-05-08 05:51 48.94969 3.00923 11910 ft 325 kts 180°
2026-05-08 05:51 48.92715 3.00728 12572 ft 325 kts 194°
2026-05-08 05:52 48.90636 2.99420 13229 ft 325 kts 214°
2026-05-08 05:52 48.89002 2.97051 13876 ft 328 kts 233°
2026-05-08 05:52 48.87711 2.94178 14454 ft 330 kts 235°
2026-05-08 05:52 48.86430 2.91262 15028 ft 333 kts 235°
2026-05-08 05:53 48.85140 2.88323 15588 ft 336 kts 235°
2026-05-08 05:53 48.83851 2.85398 16137 ft 339 kts 235°
2026-05-08 05:53 48.82531 2.82417 16687 ft 342 kts 235°
2026-05-08 05:53 48.81196 2.79411 17235 ft 345 kts 235°
2026-05-08 05:54 48.79844 2.76384 17779 ft 348 kts 235°
2026-05-08 05:54 48.78478 2.73331 18316 ft 351 kts 235°
2026-05-08 05:54 48.77103 2.70257 18784 ft 354 kts 235°
2026-05-08 05:54 48.75717 2.67160 19254 ft 356 kts 235°
2026-05-08 05:55 48.74323 2.64044 19722 ft 358 kts 235°
2026-05-08 05:55 48.72868 2.60966 20193 ft 360 kts 230°
2026-05-08 05:55 48.71076 2.58310 20640 ft 363 kts 218°
2026-05-08 05:55 48.68958 2.56214 21077 ft 365 kts 211°
2026-05-08 05:56 48.66757 2.54264 21509 ft 368 kts 211°
2026-05-08 05:56 48.64544 2.52301 21946 ft 370 kts 211°
2026-05-08 05:56 48.62323 2.50326 22351 ft 372 kts 211°
2026-05-08 05:56 48.60087 2.48335 22748 ft 374 kts 211°
2026-05-08 05:57 48.57839 2.46336 23154 ft 376 kts 211°
2026-05-08 05:57 48.55576 2.44326 23522 ft 378 kts 211°
2026-05-08 05:57 48.53304 2.42310 23856 ft 380 kts 211°
2026-05-08 05:57 48.50897 2.40642 24161 ft 383 kts 200°
2026-05-08 05:58 48.48295 2.39712 24487 ft 387 kts 189°
2026-05-08 05:58 48.45596 2.39565 24809 ft 390 kts 179°
2026-05-08 05:58 48.42878 2.39794 25136 ft 392 kts 179°
2026-05-08 05:58 48.40151 2.40011 25462 ft 394 kts 179°
2026-05-08 05:59 48.37409 2.40221 25792 ft 395 kts 179°
2026-05-08 05:59 48.34655 2.40431 26119 ft 397 kts 179°
2026-05-08 05:59 48.31890 2.40645 26452 ft 399 kts 179°
2026-05-08 05:59 48.29117 2.41017 26777 ft 402 kts 172°
2026-05-08 06:00 48.26389 2.42067 27103 ft 407 kts 163°
2026-05-08 06:00 48.23714 2.43500 27415 ft 409 kts 163°
2026-05-08 06:00 48.21026 2.44937 27751 ft 411 kts 163°
2026-05-08 06:00 48.18328 2.46373 28044 ft 413 kts 163°
2026-05-08 06:01 48.15616 2.47811 28345 ft 415 kts 163°
2026-05-08 06:01 48.12888 2.49258 28642 ft 417 kts 163°
2026-05-08 06:01 48.10167 2.50700 28936 ft 418 kts 163°
2026-05-08 06:01 48.07451 2.52131 29219 ft 420 kts 163°
2026-05-08 06:02 48.04665 2.53547 29361 ft 425 kts 164°
2026-05-08 06:02 48.01838 2.54939 29492 ft 430 kts 165°
2026-05-08 06:02 47.98978 2.56324 29640 ft 434 kts 165°
2026-05-08 06:02 47.96088 2.57720 29775 ft 439 kts 165°
2026-05-08 06:03 47.94124 2.58673 29873 ft 441 kts 165°
2026-05-08 06:03 47.90243 2.60566 30070 ft 445 kts 165°
2026-05-08 06:03 47.88252 2.61543 30174 ft 446 kts 164°
2026-05-08 06:03 47.85303 2.62994 30364 ft 447 kts 164°
2026-05-08 06:04 47.82394 2.64424 30570 ft 447 kts 164°
2026-05-08 06:04 47.79439 2.65871 30784 ft 447 kts 165°
2026-05-08 06:04 47.76481 2.67317 30988 ft 447 kts 164°
2026-05-08 06:04 47.73528 2.68758 31204 ft 447 kts 164°
2026-05-08 06:05 47.70565 2.70203 31423 ft 448 kts 164°
2026-05-08 06:05 47.67608 2.71642 31640 ft 448 kts 165°
2026-05-08 06:05 47.64642 2.73083 31858 ft 448 kts 164°
2026-05-08 06:05 47.61680 2.74521 32081 ft 448 kts 165°
2026-05-08 06:06 47.58713 2.75959 32293 ft 449 kts 164°
2026-05-08 06:06 47.55745 2.77399 32502 ft 449 kts 164°
2026-05-08 06:06 47.52774 2.78839 32685 ft 450 kts 164°
2026-05-08 06:06 47.49797 2.80276 32896 ft 450 kts 165°
2026-05-08 06:07 47.46818 2.81711 33100 ft 451 kts 164°
2026-05-08 06:07 47.43838 2.83145 33308 ft 451 kts 164°
2026-05-08 06:07 47.40850 2.84579 33504 ft 451 kts 165°
2026-05-08 06:07 47.37858 2.86014 33709 ft 452 kts 164°
2026-05-08 06:08 47.34874 2.87447 33898 ft 452 kts 164°
2026-05-08 06:08 47.31873 2.88889 34048 ft 454 kts 164°
2026-05-08 06:08 47.28870 2.90332 34185 ft 454 kts 164°
2026-05-08 06:08 47.25872 2.91773 34430 ft 452 kts 164°
2026-05-08 06:09 47.22886 2.93207 34629 ft 451 kts 165°
2026-05-08 06:09 47.19941 2.94616 34797 ft 451 kts 165°
2026-05-08 06:09 47.16957 2.96039 34963 ft 451 kts 165°
2026-05-08 06:10 47.11000 2.98859 35037 ft 449 kts 165°
2026-05-08 06:10 47.05017 3.01421 35028 ft 447 kts 167°
2026-05-08 06:11 46.99010 3.03802 35027 ft 447 kts 167°
2026-05-08 06:11 46.93010 3.06203 35030 ft 447 kts 167°
2026-05-08 06:12 46.87002 3.08669 35028 ft 449 kts 167°
2026-05-08 06:12 46.80929 3.11166 35029 ft 458 kts 167°
2026-05-08 06:13 46.74769 3.13685 35025 ft 461 kts 167°
2026-05-08 06:13 46.68588 3.16202 35028 ft 461 kts 167°
2026-05-08 06:14 46.62402 3.18706 35033 ft 461 kts 167°
2026-05-08 06:14 46.56218 3.21212 35026 ft 462 kts 167°
2026-05-08 06:15 46.50072 3.23699 35014 ft 461 kts 167°
2026-05-08 06:15 46.43887 3.26192 35022 ft 461 kts 167°
2026-05-08 06:16 46.37712 3.28672 35034 ft 461 kts 167°
2026-05-08 06:16 46.31536 3.31142 35030 ft 460 kts 167°
2026-05-08 06:17 46.21517 3.35138 35026 ft 461 kts 167°
2026-05-08 06:17 46.15344 3.37607 35025 ft 461 kts 167°
2026-05-08 06:18 46.10166 3.39676 35009 ft 461 kts 167°
2026-05-08 06:18 46.03980 3.42140 35007 ft 462 kts 167°
2026-05-08 06:19 45.97824 3.44576 35008 ft 462 kts 167°
2026-05-08 06:19 45.91618 3.47019 35004 ft 463 kts 167°
2026-05-08 06:20 45.85405 3.49473 35008 ft 464 kts 167°
2026-05-08 06:20 45.84234 3.49948 35009 ft 464 kts 167°
2026-05-08 06:21 45.83298 3.50336 35005 ft 464 kts 166°
2026-05-08 06:21 45.77108 3.53020 35013 ft 465 kts 165°
2026-05-08 06:22 45.70916 3.55752 35011 ft 466 kts 166°
2026-05-08 06:22 45.64709 3.58436 35009 ft 466 kts 166°
2026-05-08 06:23 45.58487 3.61083 35015 ft 467 kts 166°
2026-05-08 06:23 45.52260 3.63736 35025 ft 467 kts 166°
2026-05-08 06:24 45.46029 3.66391 35031 ft 467 kts 166°
2026-05-08 06:24 45.39798 3.69046 35039 ft 467 kts 166°
2026-05-08 06:25 45.33569 3.71702 35043 ft 467 kts 166°
2026-05-08 06:25 45.27572 3.75330 35027 ft 474 kts 149°
2026-05-08 06:26 45.24965 3.78216 35026 ft 478 kts 138°
2026-05-08 06:26 45.22742 3.81740 35026 ft 481 kts 128°
2026-05-08 06:26 45.19080 3.89701 35042 ft 482 kts 125°
2026-05-08 06:27 45.15433 3.97670 35059 ft 481 kts 125°
2026-05-08 06:27 45.11820 4.05542 35027 ft 474 kts 125°
2026-05-08 06:28 45.08259 4.13316 35043 ft 469 kts 125°
2026-05-08 06:28 45.04702 4.21049 35040 ft 469 kts 125°
2026-05-08 06:29 45.00617 4.28180 35041 ft 462 kts 136°
2026-05-08 06:29 44.96274 4.34848 35035 ft 461 kts 136°
2026-05-08 06:30 44.91931 4.41515 35040 ft 461 kts 136°
2026-05-08 06:30 44.87582 4.48173 35019 ft 462 kts 136°
2026-05-08 06:31 44.83234 4.54843 35024 ft 462 kts 136°
2026-05-08 06:31 44.78879 4.61499 35027 ft 462 kts 136°
2026-05-08 06:32 44.74515 4.68123 35035 ft 461 kts 136°
2026-05-08 06:32 44.70152 4.74732 35051 ft 461 kts 136°
2026-05-08 06:33 44.65793 4.81331 35049 ft 461 kts 136°
2026-05-08 06:33 44.61481 4.87921 35043 ft 461 kts 135°
2026-05-08 06:34 44.57252 4.94695 35038 ft 462 kts 134°
2026-05-08 06:34 44.53054 5.01495 35034 ft 460 kts 135°
2026-05-08 06:35 44.48837 5.08245 35003 ft 460 kts 135°
2026-05-08 06:35 44.44599 5.14979 34836 ft 462 kts 135°
2026-05-08 06:36 44.42453 5.18371 33810 ft 469 kts 135°
2026-05-08 06:36 44.40273 5.21809 32709 ft 473 kts 136°
2026-05-08 06:36 44.38085 5.25236 31847 ft 470 kts 138°
2026-05-08 06:36 44.35703 5.28272 31297 ft 456 kts 146°
2026-05-08 06:37 44.33227 5.30964 31043 ft 448 kts 146°
2026-05-08 06:37 44.30781 5.33633 30661 ft 446 kts 146°
2026-05-08 06:37 44.28342 5.36299 30154 ft 445 kts 146°
2026-05-08 06:37 44.25909 5.38960 29605 ft 445 kts 146°
2026-05-08 06:38 44.23466 5.41619 29119 ft 446 kts 146°
2026-05-08 06:38 44.21010 5.44280 28623 ft 449 kts 146°
2026-05-08 06:38 44.18544 5.46955 28115 ft 449 kts 146°
2026-05-08 06:38 44.16087 5.49623 27621 ft 447 kts 146°
2026-05-08 06:39 44.13640 5.52275 27117 ft 445 kts 145°
2026-05-08 06:39 44.11204 5.54912 26606 ft 443 kts 145°
2026-05-08 06:39 44.08778 5.57536 26112 ft 440 kts 145°
2026-05-08 06:39 44.06367 5.60143 25629 ft 437 kts 145°
2026-05-08 06:40 44.03969 5.62730 25138 ft 435 kts 145°
2026-05-08 06:40 44.01584 5.65299 24659 ft 433 kts 145°
2026-05-08 06:40 43.99210 5.67858 24168 ft 431 kts 144°
2026-05-08 06:40 43.96840 5.70406 23687 ft 429 kts 144°
2026-05-08 06:41 43.94483 5.72935 23150 ft 428 kts 144°
2026-05-08 06:41 43.92133 5.75459 22670 ft 426 kts 144°
2026-05-08 06:41 43.89795 5.77964 22201 ft 423 kts 144°
2026-05-08 06:41 43.87478 5.80446 21727 ft 419 kts 145°
2026-05-08 06:42 43.85185 5.82905 21251 ft 414 kts 144°
2026-05-08 06:42 43.82918 5.85333 21003 ft 412 kts 144°
2026-05-08 06:42 43.80652 5.87749 21012 ft 411 kts 144°
2026-05-08 06:42 43.78371 5.90175 20273 ft 416 kts 144°
2026-05-08 06:43 43.76087 5.92600 19357 ft 419 kts 144°
2026-05-08 06:43 43.73806 5.95027 18932 ft 408 kts 144°
2026-05-08 06:43 43.71558 5.97422 18475 ft 399 kts 144°
2026-05-08 06:43 43.69374 5.99744 17993 ft 394 kts 144°
2026-05-08 06:44 43.67211 6.02038 17549 ft 391 kts 144°
2026-05-08 06:44 43.65054 6.04316 17104 ft 389 kts 144°
2026-05-08 06:44 43.62913 6.06573 16667 ft 386 kts 144°
2026-05-08 06:44 43.60916 6.09042 16227 ft 385 kts 133°
2026-05-08 06:45 43.59320 6.12001 15994 ft 385 kts 122°
2026-05-08 06:45 43.58161 6.15333 16023 ft 387 kts 112°
2026-05-08 06:45 43.57202 6.18813 15508 ft 390 kts 112°
2026-05-08 06:45 43.56239 6.22303 14489 ft 397 kts 112°
2026-05-08 06:46 43.55260 6.25855 13803 ft 393 kts 112°
2026-05-08 06:46 43.54311 6.29293 13649 ft 375 kts 112°
2026-05-08 06:46 43.53405 6.32569 13510 ft 358 kts 112°
2026-05-08 06:46 43.52537 6.35702 13376 ft 342 kts 112°
2026-05-08 06:47 43.51707 6.38701 13242 ft 327 kts 112°
2026-05-08 06:47 43.50908 6.41564 13078 ft 314 kts 114°
2026-05-08 06:47 43.49847 6.44144 12747 ft 307 kts 128°
2026-05-08 06:47 43.48419 6.46299 12407 ft 304 kts 135°
2026-05-08 06:48 43.46955 6.48386 12015 ft 302 kts 134°
2026-05-08 06:48 43.45504 6.50467 11640 ft 300 kts 134°
2026-05-08 06:48 43.44067 6.52539 11257 ft 298 kts 134°
2026-05-08 06:48 43.42638 6.54603 10861 ft 297 kts 133°
2026-05-08 06:49 43.41219 6.56645 10473 ft 294 kts 133°
2026-05-08 06:49 43.39964 6.58837 10059 ft 291 kts 118°
2026-05-08 06:49 43.39286 6.61425 9623 ft 288 kts 99°
2026-05-08 06:49 43.39255 6.64149 9170 ft 285 kts 81°
2026-05-08 06:50 43.39761 6.66774 8705 ft 283 kts 73°
2026-05-08 06:50 43.40322 6.69364 8254 ft 282 kts 74°
2026-05-08 06:50 43.40869 6.71938 7821 ft 279 kts 74°
2026-05-08 06:50 43.41405 6.74493 7406 ft 277 kts 74°
2026-05-08 06:51 43.41935 6.77029 6991 ft 275 kts 74°
2026-05-08 06:51 43.42461 6.79550 6585 ft 273 kts 75°
2026-05-08 06:51 43.42983 6.82060 6020 ft 276 kts 75°
2026-05-08 06:51 43.43509 6.84580 5691 ft 269 kts 74°
2026-05-08 06:52 43.44014 6.87000 5546 ft 257 kts 75°
2026-05-08 06:52 43.44497 6.89301 5427 ft 244 kts 75°
2026-05-08 06:52 43.44956 6.91494 5307 ft 233 kts 74°
2026-05-08 06:52 43.45603 6.93492 5023 ft 231 kts 56°
2026-05-08 06:53 43.46687 6.95167 4522 ft 238 kts 46°
2026-05-08 06:53 43.47888 6.96763 4102 ft 239 kts 45°
2026-05-08 06:53 43.49047 6.98322 4024 ft 225 kts 46°
2026-05-08 06:53 43.50121 6.99783 4024 ft 209 kts 46°
2026-05-08 06:54 43.51132 7.01163 3867 ft 200 kts 46°
2026-05-08 06:54 43.52156 7.02564 3633 ft 224 kts 46°
2026-05-08 06:54 43.53264 7.04078 3320 ft 221 kts 46°
2026-05-08 06:54 43.54342 7.05548 3029 ft 215 kts 46°
2026-05-08 06:55 43.55391 7.06982 2757 ft 209 kts 46°
2026-05-08 06:55 43.56397 7.08357 2483 ft 196 kts 45°
2026-05-08 06:55 43.57330 7.09634 2222 ft 183 kts 45°
2026-05-08 06:55 43.58196 7.10820 1994 ft 168 kts 45°
2026-05-08 06:56 43.58991 7.11910 1764 ft 155 kts 45°
2026-05-08 06:56 43.59732 7.12925 1529 ft 146 kts 45°
2026-05-08 06:56 43.60443 7.13900 1345 ft 143 kts 45°
2026-05-08 06:56 43.61150 7.14869 1166 ft 144 kts 43°
2026-05-08 06:57 43.61863 7.15847 977 ft 146 kts 42°
2026-05-08 06:57 43.62579 7.16829 781 ft 144 kts 41°
2026-05-08 06:57 43.63281 7.17794 590 ft 141 kts 41°
2026-05-08 06:57 43.63965 7.18733 411 ft 140 kts 41°
2026-05-08 06:58 43.64640 7.19679 286 ft 138 kts 43°
2026-05-08 06:58 43.65320 7.20602 86 ft 136 kts 40°
2026-05-08 06:58 43.65958 7.21499 30 ft 121 kts 39°
2026-05-08 06:58 43.66504 7.22202 23 ft 93 kts 45°
2026-05-08 06:59 43.66797 7.22536 20 ft 28 kts 356°
2026-05-08 06:59 43.66836 7.22377 22 ft 17 kts 227°
2026-05-08 06:59 43.66764 7.22261 23 ft 16 kts 227°
2026-05-08 06:59 43.66691 7.22155 22 ft 15 kts 224°
2026-05-08 07:00 43.66629 7.22072 22 ft 9 kts 224°
2026-05-08 07:00 43.66593 7.22008 22 ft 8 kts 263°
2026-05-08 07:00 43.66601 7.21939 22 ft 7 kts 287°
2026-05-08 07:00 43.66616 7.21846 22 ft 15 kts 269°
2026-05-08 07:01 43.66558 7.21738 22 ft 14 kts 221°
2026-05-08 07:01 43.66489 7.21651 22 ft 13 kts 225°
2026-05-08 07:01 43.66439 7.21576 22 ft 9 kts 227°
2026-05-08 07:01 43.66397 7.21512 22 ft 9 kts 227°
2026-05-08 07:02 43.66355 7.21414 22 ft 16 kts 252°
2026-05-08 07:02 43.66340 7.21309 22 ft 17 kts 260°
2026-05-08 07:02 43.66316 7.21101 23 ft 16 kts 264°
2026-05-08 07:02 43.66315 7.20945 22 ft 16 kts 274°
2026-05-08 07:03 43.66295 7.20800 23 ft 14 kts 233°
2026-05-08 07:03 43.66241 7.20748 22 ft 8 kts 240°
2026-05-08 07:03 43.66232 7.20700 22 ft 5 kts 258°
2026-05-08 07:03 43.66229 7.20678 22 ft 1 kts 259°
2026-05-08 07:04 43.66227 7.20669 22 ft 1 kts 256°
2026-05-08 07:04 43.66226 7.20666 22 ft 0 kts 256°
2026-05-08 07:04 43.66226 7.20665 22 ft 0 kts 256°
2026-05-08 07:04 43.66226 7.20664 22 ft 0 kts 256°
2026-05-08 07:07 43.66226 7.20665 22 ft 0 kts 256°
2026-05-08 07:26 43.66226 7.20666 22 ft 0 kts 256°